TimeICT,TemperatureF,Dew PointF,Humidity,Sea Level PressureIn,VisibilityMPH,Wind Direction,Wind SpeedMPH,Gust SpeedMPH,PrecipitationIn,Events,Conditions,WindDirDegrees,DateUTC
12:00 AM,78.8,71.6,78,29.83,5.6,Calm,Calm,-,N/A,,Mostly Cloudy,0,2013-02-12 17:00:00
12:30 AM,78.8,71.6,78,29.83,5.6,East,3.5,-,N/A,,Mostly Cloudy,90,2013-02-12 17:30:00
1:00 AM,79,75,83,29.79,6,Calm,Calm,,,,Scattered Clouds,,2013-02-12 18:00:00
1:00 AM,78.8,71.6,78,29.83,5.6,Calm,Calm,-,N/A,,Mostly Cloudy,0,2013-02-12 18:00:00
1:30 AM,78.8,71.6,78,29.80,5.6,Calm,Calm,-,N/A,,Mostly Cloudy,0,2013-02-12 18:30:00
2:00 AM,78.8,71.6,78,29.80,5.6,Calm,Calm,-,N/A,,Mostly Cloudy,0,2013-02-12 19:00:00
2:30 AM,78.8,71.6,78,29.80,5.6,ESE,3.5,-,N/A,,Mostly Cloudy,120,2013-02-12 19:30:00
3:00 AM,78.8,71.6,78,29.83,5.6,Variable,3.5,-,N/A,,Mostly Cloudy,0,2013-02-12 20:00:00
3:30 AM,78.8,71.6,78,29.80,5.6,Calm,Calm,-,N/A,,Mostly Cloudy,0,2013-02-12 20:30:00
4:00 AM,77.0,73.4,89,29.80,5.6,Calm,Calm,-,N/A,,Mostly Cloudy,0,2013-02-12 21:00:00
4:30 AM,77.0,71.6,83,29.80,5.6,Calm,Calm,-,N/A,,Mostly Cloudy,0,2013-02-12 21:30:00
5:30 AM,77.0,71.6,83,29.80,5.6,Calm,Calm,-,N/A,,Mostly Cloudy,0,2013-02-12 22:30:00
6:00 AM,77.0,71.6,83,29.80,5.6,ESE,4.6,-,N/A,,Mostly Cloudy,110,2013-02-12 23:00:00
6:30 AM,77.0,71.6,83,29.80,5.6,ESE,3.5,-,N/A,,Scattered Clouds,110,2013-02-12 23:30:00
7:00 AM,78,74,84,29.78,6,Calm,Calm,,,,Scattered Clouds,,2013-02-13 00:00:00
7:00 AM,77.0,71.6,83,29.80,5.6,Calm,Calm,-,N/A,,Scattered Clouds,0,2013-02-13 00:00:00
7:30 AM,78.8,71.6,78,29.83,5.6,ENE,4.6,-,N/A,,Scattered Clouds,60,2013-02-13 00:30:00
8:00 AM,80.6,71.6,74,29.83,5.6,NE,4.6,-,N/A,,Scattered Clouds,50,2013-02-13 01:00:00
8:30 AM,80.6,71.6,74,29.86,5.6,Variable,2.3,-,N/A,,Scattered Clouds,0,2013-02-13 01:30:00
9:00 AM,82.4,71.6,70,29.86,5.6,Variable,3.5,-,N/A,,Mostly Cloudy,0,2013-02-13 02:00:00
9:30 AM,84.2,71.6,66,29.86,5.6,Variable,4.6,-,N/A,,Mostly Cloudy,0,2013-02-13 02:30:00
10:00 AM,84.2,71.6,66,29.89,5.6,Variable,5.8,-,N/A,,Mostly Cloudy,0,2013-02-13 03:00:00
10:30 AM,86.0,71.6,62,29.89,5.6,East,9.2,-,N/A,,Mostly Cloudy,100,2013-02-13 03:30:00
11:00 AM,87.8,71.6,58,29.89,5.0,NE,4.6,-,N/A,,Mostly Cloudy,40,2013-02-13 04:00:00
11:30 AM,86.0,69.8,58,29.89,5.0,East,8.1,-,N/A,,Mostly Cloudy,80,2013-02-13 04:30:00
12:00 PM,87.8,69.8,55,29.86,5.6,Variable,6.9,19.6,N/A,,Mostly Cloudy,0,2013-02-13 05:00:00
12:30 PM,87.8,69.8,55,29.86,5.6,ENE,9.2,-,N/A,,Mostly Cloudy,70,2013-02-13 05:30:00
1:00 PM,90,73,49,29.83,5,ENE,5.8,,,,Haze,70,2013-02-13 06:00:00
1:00 PM,87.8,71.6,58,29.86,5.0,East,9.2,-,N/A,,Mostly Cloudy,90,2013-02-13 06:00:00
1:30 PM,87.8,69.8,55,29.83,5.0,East,9.2,-,N/A,,Mostly Cloudy,100,2013-02-13 06:30:00
2:00 PM,87.8,69.8,55,29.83,5.6,East,9.2,-,N/A,,Mostly Cloudy,90,2013-02-13 07:00:00
2:30 PM,87.8,69.8,55,29.80,5.6,ESE,10.4,-,N/A,,Mostly Cloudy,110,2013-02-13 07:30:00
3:00 PM,89.6,69.8,52,29.80,5.6,East,8.1,-,N/A,,Mostly Cloudy,80,2013-02-13 08:00:00
3:30 PM,91.4,69.8,49,29.77,5.6,East,9.2,-,N/A,,Mostly Cloudy,90,2013-02-13 08:30:00
4:00 PM,89.6,68.0,49,29.77,5.0,NW,4.6,-,N/A,,Mostly Cloudy,320,2013-02-13 09:00:00
4:30 PM,87.8,73.4,62,29.77,5.0,Variable,4.6,-,N/A,,Mostly Cloudy,0,2013-02-13 09:30:00
5:00 PM,87.8,73.4,62,29.77,5.6,West,9.2,-,N/A,,Mostly Cloudy,270,2013-02-13 10:00:00
5:30 PM,86.0,73.4,66,29.77,5.6,West,10.4,-,N/A,,Mostly Cloudy,280,2013-02-13 10:30:00
6:00 PM,86.0,71.6,62,29.77,5.6,WNW,10.4,-,N/A,,Mostly Cloudy,290,2013-02-13 11:00:00
6:30 PM,84.2,71.6,66,29.77,5.0,WNW,8.1,-,N/A,,Mostly Cloudy,290,2013-02-13 11:30:00
7:00 PM,85,74,62,29.75,5,WNW,4.6,,,,Mist,300,2013-02-13 12:00:00
7:00 PM,84.2,71.6,66,29.80,5.0,WNW,6.9,-,N/A,,Mostly Cloudy,290,2013-02-13 12:00:00
7:30 PM,82.4,71.6,70,29.80,5.0,WNW,4.6,-,N/A,,Mostly Cloudy,300,2013-02-13 12:30:00
8:00 PM,80.6,71.6,74,29.83,5.6,NW,3.5,-,N/A,,Mostly Cloudy,310,2013-02-13 13:00:00
8:30 PM,78.8,73.4,83,29.83,5.6,Calm,Calm,-,N/A,,Mostly Cloudy,0,2013-02-13 13:30:00
9:00 PM,78.8,73.4,83,29.83,5.6,Calm,Calm,-,N/A,,Mostly Cloudy,0,2013-02-13 14:00:00
9:30 PM,78.8,73.4,83,29.86,5.6,Calm,Calm,-,N/A,,Mostly Cloudy,0,2013-02-13 14:30:00
10:00 PM,77.0,73.4,89,29.86,5.6,Calm,Calm,-,N/A,,Mostly Cloudy,0,2013-02-13 15:00:00
10:30 PM,77.0,73.4,89,29.86,5.6,Calm,Calm,-,N/A,,Mostly Cloudy,0,2013-02-13 15:30:00
11:00 PM,77.0,73.4,89,29.86,5.6,Variable,2.3,-,N/A,,Mostly Cloudy,0,2013-02-13 16:00:00
11:30 PM,77.0,73.4,89,29.86,5.6,Calm,Calm,-,N/A,,Mostly Cloudy,0,2013-02-13 16:30:00